TimePDT,TemperatureF,Dew PointF,Humidity,Sea Level PressureIn,VisibilityMPH,Wind Direction,Wind SpeedMPH,Gust SpeedMPH,PrecipitationIn,Events,Conditions,WindDirDegrees,DateUTC
12:58 AM,56.5,39.7,54,30.08,10.0,SW,5.8,-,N/A,,Clear,220,2013-08-31 07:58:00
1:58 AM,58.1,41.4,54,30.06,10.0,SW,4.6,-,N/A,,Clear,230,2013-08-31 08:58:00
2:58 AM,52.7,41.9,67,30.07,10.0,North,4.6,-,N/A,,Clear,360,2013-08-31 09:58:00
3:58 AM,54.3,41.4,62,30.07,10.0,Calm,Calm,-,N/A,,Clear,0,2013-08-31 10:58:00
4:58 AM,49.3,39.7,70,30.08,10.0,ENE,1.2,-,N/A,,Clear,60,2013-08-31 11:58:00
5:58 AM,49.1,40.6,73,30.10,10.0,NE,5.8,-,N/A,,Clear,50,2013-08-31 12:58:00
6:58 AM,51.6,43.3,73,30.11,10.0,NNE,3.5,-,N/A,,Clear,20,2013-08-31 13:58:00
7:58 AM,59.7,49.3,68,30.11,10.0,NNE,12.7,-,N/A,,Clear,30,2013-08-31 14:58:00
8:58 AM,63.3,49.8,61,30.11,10.0,NE,12.7,-,N/A,,Clear,50,2013-08-31 15:58:00
9:58 AM,67.3,48.9,52,30.10,10.0,NE,9.2,-,N/A,,Clear,50,2013-08-31 16:58:00
10:58 AM,71.2,47.8,43,30.09,10.0,NNE,6.9,-,N/A,,Clear,30,2013-08-31 17:58:00
11:32 AM,73.4,46.4,38,30.10,10.0,NE,6.9,-,N/A,,Light Drizzle,50,2013-08-31 18:32:00
11:35 AM,73.4,46.4,38,30.09,10.0,NE,5.8,-,N/A,,Clear,40,2013-08-31 18:35:00
11:53 AM,75.2,44.6,34,30.09,10.0,Variable,4.6,-,N/A,Rain,Light Rain,0,2013-08-31 18:53:00
11:58 AM,75.2,45.7,35,30.06,10.0,Variable,5.8,-,0.00,Rain,Light Rain,0,2013-08-31 18:58:00
12:02 PM,75.2,46.4,36,30.08,10.0,Variable,4.6,-,N/A,,Clear,0,2013-08-31 19:02:00
12:04 PM,75.2,46.4,36,30.08,10.0,East,5.8,-,N/A,Rain,Light Rain,80,2013-08-31 19:04:00
12:48 PM,77.0,44.6,32,30.07,10.0,Variable,5.8,-,N/A,,Clear,0,2013-08-31 19:48:00
12:54 PM,77.0,44.6,32,30.07,10.0,Variable,6.9,-,N/A,Rain,Light Rain,0,2013-08-31 19:54:00
12:58 PM,77.0,44.6,32,30.06,10.0,Variable,2.3,-,0.00,,Light Drizzle,0,2013-08-31 19:58:00
1:58 PM,79.5,41.4,26,30.03,10.0,NNE,4.6,-,0.00,Rain,Light Rain,30,2013-08-31 20:58:00
2:11 PM,80.6,41.0,24,30.05,10.0,NNW,6.9,-,N/A,,Clear,340,2013-08-31 21:11:00
2:16 PM,80.6,41.0,24,30.05,10.0,ENE,8.1,-,N/A,,Light Drizzle,70,2013-08-31 21:16:00
2:26 PM,78.8,41.0,26,30.05,10.0,Variable,3.5,-,N/A,,Clear,0,2013-08-31 21:26:00
2:58 PM,80.1,40.1,24,30.02,10.0,North,3.5,-,0.00,,Clear,360,2013-08-31 21:58:00
3:08 PM,80.6,41.0,24,30.04,10.0,NE,5.8,-,N/A,Rain,Light Rain,50,2013-08-31 22:08:00
3:23 PM,80.6,41.0,24,30.03,10.0,NNW,4.6,-,N/A,,Clear,330,2013-08-31 22:23:00
3:52 PM,80.6,41.0,24,30.02,10.0,WSW,3.5,-,N/A,,Light Drizzle,240,2013-08-31 22:52:00
3:58 PM,81.5,40.8,24,29.99,10.0,West,4.6,-,0.00,,Light Drizzle,270,2013-08-31 22:58:00
4:00 PM,82.4,41.0,23,30.02,10.0,Variable,1.2,-,N/A,,Clear,0,2013-08-31 23:00:00
4:08 PM,80.6,41.0,24,30.01,10.0,SSE,4.6,-,N/A,,Light Drizzle,160,2013-08-31 23:08:00
4:14 PM,80.6,41.0,24,30.01,10.0,SSE,4.6,-,N/A,,Clear,160,2013-08-31 23:14:00
4:16 PM,80.6,41.0,24,30.01,10.0,Variable,3.5,-,N/A,,Light Drizzle,0,2013-08-31 23:16:00
4:18 PM,80.6,41.0,24,30.01,10.0,Variable,3.5,-,N/A,,Clear,0,2013-08-31 23:18:00
4:23 PM,80.6,42.8,26,30.01,10.0,SSW,1.2,-,N/A,,Light Drizzle,200,2013-08-31 23:23:00
4:49 PM,80.6,42.8,26,30.00,10.0,Variable,2.3,-,N/A,,Clear,0,2013-08-31 23:49:00
4:58 PM,81.7,42.3,25,29.98,10.0,North,4.6,-,0.00,,Clear,10,2013-08-31 23:58:00
5:19 PM,80.6,41.0,24,30.00,10.0,Variable,2.3,-,N/A,,Light Drizzle,0,2013-09-01 00:19:00
5:26 PM,82.4,41.0,23,29.99,10.0,WNW,5.8,-,N/A,,Clear,300,2013-09-01 00:26:00
5:58 PM,81.1,41.5,24,29.96,10.0,Variable,1.2,-,0.00,,Clear,0,2013-09-01 00:58:00
6:58 PM,77.9,39.7,25,29.95,10.0,North,8.1,-,N/A,,Clear,350,2013-09-01 01:58:00
7:58 PM,71.4,37.9,30,29.94,10.0,NNW,5.8,-,N/A,,Clear,340,2013-09-01 02:58:00
8:58 PM,70.5,36.0,28,29.94,10.0,NNW,6.9,-,N/A,,Clear,340,2013-09-01 03:58:00
9:58 PM,66.6,35.6,32,29.92,10.0,North,6.9,-,N/A,,Clear,350,2013-09-01 04:58:00
10:58 PM,64.4,37.4,37,29.92,10.0,NNE,1.2,-,N/A,,Clear,30,2013-09-01 05:58:00
11:58 PM,63.0,37.8,39,29.92,10.0,North,5.8,-,N/A,,Clear,360,2013-09-01 06:58:00